Regional Weather Roundup
Issued by NWS

Home | Current Version | Previous Version | Text Only | Print | Product List | Glossary On
Versions: 1 2 3 4 5 6 7 8 9 10 11 12 13 14 15 16 17 18 19 20 21 22 23 24 25 26 27 28 29 30 31 32 33 34 35 36 37 38 39 40 41 42 43 44 45 46 47 48 49 50
000
ASUS43 KTOP 241959
RWRKS

WEATHER ROUNDUP FOR KANSAS
NATIONAL WEATHER SERVICE GOODLAND KS
300 PM CDT FRI OCT 24 2014

NOTE:  "FAIR" INDICATES FEW OR NO CLOUDS BELOW 12,000 FEET WITH NO
SIGNIFICANT WEATHER AND/OR OBSTRUCTIONS TO VISIBILITY.

KSZ001>006-013>018-027>032-041>047-242100-
NORTHWEST KANSAS

CITY           SKY/WX    TMP DP  RH WIND       PRES   REMARKS
GOODLAND       SUNNY     85  29  13 S3        30.06F
HAYS           MOSUNNY   84  55  37 SW10      29.98F
HILL CITY      SUNNY     87  39  18 N9        29.98F
RUSSELL        SUNNY     84  55  36 SW10      29.95F
$$

KSZ061>065-074>080-084>089-242100-
SOUTHWEST KANSAS

CITY           SKY/WX    TMP DP  RH WIND       PRES   REMARKS
DODGE CITY     SUNNY     85  47  26 W10       30.03F
ELKHART          N/A     87  38  17 SW12        N/A
GARDEN CITY    MOSUNNY   85  41  21 SW13      30.03F
GREAT BEND     SUNNY     82  57  42 SW12G17   29.98F
LIBERAL        SUNNY     88  45  22 SW9       30.06F
$$

KSZ066>073-081>083-090>101-242100-
SOUTHEAST KANSAS

CITY           SKY/WX    TMP DP  RH WIND       PRES   REMARKS
CHANUTE        CLOUDY    73  62  68 S9        30.02F
COFFEYVILLE    CLOUDY    74  61  63 S9        30.03F
HUTCHINSON     SUNNY     84  61  45 S13       29.99F
NEWTON         MOSUNNY   79  61  53 SW13      30.02F
PARSONS        CLOUDY    75  62  64 SW10      30.04F
WICHITA INTL   MOSUNNY   81  61  50 S13       30.00F
WICHITA JABRA  MOSUNNY   79  62  56 S12       30.00F
WINFIELD       SUNNY     79  63  57 SW12      30.02F
$$

KSZ007>012-019>026-033>040-048>060-102>105-242100-
NORTHEAST KANSAS

CITY           SKY/WX    TMP DP  RH WIND       PRES   REMARKS
CONCORDIA      PTSUNNY   78  62  57 SW13      29.94F
EMPORIA        CLOUDY    77  61  57 SW14      29.99F
LAWRENCE       CLOUDY    74  62  66 SW13      29.97F
MANHATTAN      PTSUNNY   79  64  60 SW14      29.94F
OLATHE IND     CLOUDY    75  63  66 SW14      29.99F
OLATHE EXE     CLOUDY    75  63  66 SW10      29.97F
SALINA         PTSUNNY   82  63  52 S12       29.96F
TOPEKA BILLARD CLOUDY    77  65  66 S7        29.95F
TOPEKA FORBES  CLOUDY    77  63  61 SW13      29.96F
$$



USA.gov is the U.S. government's official web portal to all federal, state and local government web resources and services.